| time (UTC) | temp F | wind direction | speed MPH | gust MPH | rain 1hr in | rain 24hr in | rain mn in | humidity % | barometer mb |
| 20260504041516 | 47 | 106 | 1.0 | 2.0 | 0.00 | 0.01 | 0.00 | 85 | 1008.0 |
| 20260504040526 | 47 | 180 | 1.0 | 2.0 | 0.00 | 0.01 | 0.00 | 85 | 1008.2 |
| 20260504035519 | 47 | 180 | 0.0 | 2.0 | 0.00 | 0.01 | 0.01 | 84 | 1008.3 |
| 20260504034529 | 47 | 0.0 | 1.0 | 0.00 | 0.01 | 0.01 | 85 | 1008.3 | |
| 20260504033520 | 47 | 0.0 | 1.0 | 0.00 | 0.01 | 0.01 | 85 | 1008.3 | |
| 20260504032528 | 47 | 0.0 | 1.0 | 0.00 | 0.01 | 0.01 | 85 | 1008.4 | |
| 20260504031522 | 48 | 180 | 2.0 | 3.0 | 0.00 | 0.01 | 0.01 | 85 | 1008.5 |
| 20260504030532 | 48 | 191 | 2.0 | 4.0 | 0.00 | 0.01 | 0.01 | 85 | 1008.6 |
| 20260504025524 | 48 | 184 | 2.0 | 4.0 | 0.00 | 0.01 | 0.01 | 85 | 1008.6 |
| 20260504024518 | 48 | 209 | 4.0 | 6.0 | 0.00 | 0.01 | 0.01 | 85 | 1008.9 |
| 20260504023548 | 48 | 225 | 2.0 | 5.0 | 0.00 | 0.01 | 0.01 | 85 | 1009.0 |
| 20260504022521 | 47 | 192 | 1.0 | 3.0 | 0.00 | 0.01 | 0.01 | 85 | 1009.0 |
| 20260504021529 | 47 | 213 | 2.0 | 3.0 | 0.00 | 0.01 | 0.01 | 84 | 1009.0 |
| 20260504020524 | 48 | 192 | 1.0 | 2.0 | 0.00 | 0.01 | 0.01 | 84 | 1009.0 |
| 20260504015517 | 48 | 225 | 2.0 | 3.0 | 0.00 | 0.01 | 0.01 | 83 | 1009.0 |
| 20260504014546 | 48 | 188 | 1.0 | 3.0 | 0.00 | 0.01 | 0.01 | 83 | 1008.9 |
| 20260504013521 | 48 | 248 | 2.0 | 4.0 | 0.00 | 0.01 | 0.01 | 82 | 1009.0 |
| 20260504012530 | 48 | 242 | 4.0 | 6.0 | 0.00 | 0.01 | 0.01 | 80 | 1009.0 |
| 20260504011522 | 48 | 255 | 5.0 | 10.0 | 0.00 | 0.01 | 0.01 | 78 | 1009.0 |
| 20260504010531 | 48 | 260 | 5.0 | 8.0 | 0.00 | 0.01 | 0.01 | 75 | 1009.0 |
| 20260504005546 | 49 | 264 | 7.0 | 11.0 | 0.00 | 0.01 | 0.01 | 73 | 1009.0 |
| 20260504004542 | 49 | 273 | 6.0 | 9.0 | 0.00 | 0.01 | 0.01 | 71 | 1009.0 |
| 20260504003526 | 49 | 250 | 5.0 | 8.0 | 0.01 | 0.01 | 0.01 | 70 | 1008.9 |
| 20260504002521 | 49 | 241 | 5.0 | 8.0 | 0.01 | 0.01 | 0.01 | 70 | 1008.8 |
| 20260504001529 | 49 | 264 | 4.0 | 8.0 | 0.01 | 0.01 | 0.01 | 68 | 1008.9 |
| 20260504000524 | 49 | 247 | 4.0 | 8.0 | 0.01 | 0.01 | 0.01 | 65 | 1008.7 |
| 20260503235517 | 50 | 297 | 7.0 | 13.0 | 0.01 | 0.01 | 0.01 | 61 | 1008.6 |
| 20260503234526 | 51 | 260 | 5.0 | 9.0 | 0.01 | 0.01 | 0.01 | 54 | 1008.7 |
| 20260503233520 | 51 | 208 | 2.0 | 5.0 | 0.00 | 0.00 | 0.00 | 51 | 1008.6 |
| 20260503232529 | 51 | 229 | 2.0 | 4.0 | 0.00 | 0.00 | 0.00 | 51 | 1008.6 |
| 20260503231603 | 52 | 203 | 0.0 | 2.0 | 0.00 | 0.00 | 0.00 | 50 | 1008.7 |
| 20260503230531 | 52 | 236 | 3.0 | 5.0 | 0.00 | 0.00 | 0.00 | 49 | 1008.5 |
| 20260503225524 | 52 | 316 | 1.0 | 3.0 | 0.00 | 0.00 | 0.00 | 48 | 1008.6 |
| 20260503224519 | 53 | 263 | 3.0 | 5.0 | 0.00 | 0.00 | 0.00 | 48 | 1008.9 |
| 20260503223527 | 53 | 298 | 3.0 | 6.0 | 0.00 | 0.00 | 0.00 | 49 | 1009.0 |
| 20260503222521 | 53 | 266 | 5.0 | 8.0 | 0.00 | 0.00 | 0.00 | 49 | 1009.1 |
| 20260503221531 | 52 | 254 | 3.0 | 6.0 | 0.00 | 0.00 | 0.00 | 49 | 1009.2 |
| 20260503220524 | 52 | 330 | 7.0 | 11.0 | 0.00 | 0.00 | 0.00 | 46 | 1009.2 |
| 20260503215517 | 53 | 252 | 8.0 | 11.0 | 0.00 | 0.00 | 0.00 | 41 | 1009.2 |
| 20260503214526 | 54 | 242 | 8.0 | 13.0 | 0.00 | 0.00 | 0.00 | 35 | 1009.0 |
| 20260503213520 | 54 | 239 | 10.0 | 16.0 | 0.00 | 0.00 | 0.00 | 36 | 1009.0 |
| 20260503212527 | 55 | 233 | 10.0 | 13.0 | 0.00 | 0.00 | 0.00 | 34 | 1008.8 |
| 20260503211522 | 55 | 202 | 8.0 | 13.0 | 0.00 | 0.00 | 0.00 | 33 | 1008.6 |
| 20260503210519 | 57 | 215 | 11.0 | 15.0 | 0.00 | 0.00 | 0.00 | 32 | 1008.8 |
| 20260503205628 | 57 | 231 | 7.0 | 14.0 | 0.00 | 0.00 | 0.00 | 32 | 1008.9 |
| 20260503204522 | 59 | 271 | 6.0 | 10.0 | 0.00 | 0.00 | 0.00 | 34 | 1008.9 |
| 20260503203528 | 57 | 251 | 7.0 | 12.0 | 0.00 | 0.00 | 0.00 | 36 | 1009.1 |
| 20260503202523 | 56 | 223 | 13.0 | 18.0 | 0.00 | 0.00 | 0.00 | 35 | 1009.3 |
| 20260503201516 | 57 | 237 | 11.0 | 19.0 | 0.00 | 0.00 | 0.00 | 39 | 1009.4 |
| 20260503200525 | 56 | 240 | 9.0 | 14.0 | 0.00 | 0.00 | 0.00 | 37 | 1009.6 |
| 20260503195519 | 56 | 255 | 9.0 | 14.0 | 0.00 | 0.00 | 0.00 | 35 | 1009.7 |
| 20260503194548 | 56 | 281 | 9.0 | 17.0 | 0.00 | 0.00 | 0.00 | 33 | 1009.7 |
| 20260503193523 | 57 | 251 | 8.0 | 14.0 | 0.00 | 0.00 | 0.00 | 32 | 1009.7 |
| 20260503192531 | 56 | 223 | 12.0 | 17.0 | 0.00 | 0.00 | 0.00 | 31 | 1009.9 |
| 20260503191526 | 59 | 249 | 11.0 | 18.0 | 0.00 | 0.00 | 0.00 | 31 | 1010.0 |
| 20260503190539 | 57 | 266 | 6.0 | 11.0 | 0.00 | 0.00 | 0.00 | 34 | 1010.2 |
| 20260503185530 | 56 | 253 | 9.0 | 16.0 | 0.00 | 0.00 | 0.00 | 34 | 1010.3 |
| 20260503184522 | 56 | 237 | 8.0 | 16.0 | 0.00 | 0.00 | 0.00 | 34 | 1010.5 |
| 20260503183533 | 56 | 275 | 9.0 | 16.0 | 0.00 | 0.00 | 0.00 | 32 | 1010.6 |
| 20260503182524 | 56 | 239 | 8.0 | 13.0 | 0.00 | 0.00 | 0.00 | 32 | 1010.7 |
| 20260503181519 | 56 | 288 | 7.0 | 11.0 | 0.00 | 0.00 | 0.00 | 31 | 1010.8 |
| 20260503180528 | 56 | 252 | 9.0 | 13.0 | 0.00 | 0.00 | 0.00 | 31 | 1010.6 |
| 20260503175523 | 56 | 243 | 8.0 | 11.0 | 0.00 | 0.00 | 0.00 | 31 | 1010.7 |
| 20260503174529 | 56 | 258 | 7.0 | 11.0 | 0.00 | 0.66 | 0.00 | 30 | 1010.8 |
| 20260503173524 | 56 | 292 | 8.0 | 16.0 | 0.00 | 0.66 | 0.00 | 27 | 1010.8 |
| 20260503172522 | 55 | 258 | 11.0 | 18.0 | 0.00 | 0.66 | 0.00 | 26 | 1011.2 |
| 20260503171527 | 55 | 257 | 12.0 | 18.0 | 0.00 | 0.66 | 0.00 | 23 | 1011.3 |
| 20260503170542 | 56 | 281 | 10.0 | 14.0 | 0.00 | 0.66 | 0.00 | 24 | 1011.3 |
| 20260503150529 | 52 | 205 | 7.0 | 12.0 | 0.00 | 0.66 | 0.00 | 31 | 1012.8 |
| 20260503130529 | 47 | 233 | 5.0 | 8.0 | 0.00 | 0.66 | 0.00 | 43 | 1013.9 |
| 20260503110531 | 37 | 253 | 1.0 | 3.0 | 0.00 | 0.66 | 0.00 | 64 | 1013.9 |
| 20260503081517 | 36 | 0.0 | 1.0 | 0.00 | 0.66 | 0.00 | 60 | 1014.0 | |
| 20260503080526 | 36 | 268 | 2.0 | 3.0 | 0.00 | 0.66 | 0.00 | 60 | 1014.1 |
| 20260503072550 | 37 | 271 | 2.0 | 4.0 | 0.00 | 0.66 | 0.00 | 59 | 1014.1 |
| 20260503071523 | 37 | 200 | 1.0 | 3.0 | 0.00 | 0.66 | 0.00 | 58 | 1014.1 |
| 20260503070620 | 37 | 262 | 2.0 | 4.0 | 0.00 | 0.66 | 0.00 | 57 | 1014.1 |
| 20260503054518 | 38 | 232 | 1.0 | 3.0 | 0.00 | 0.66 | 0.00 | 65 | 1014.5 |
| 20260503053526 | 38 | 251 | 2.0 | 3.0 | 0.00 | 0.66 | 0.00 | 66 | 1014.6 |
| 20260503052518 | 38 | 234 | 2.0 | 4.0 | 0.00 | 0.66 | 0.00 | 65 | 1014.5 |
| 20260503051529 | 38 | 228 | 2.0 | 3.0 | 0.00 | 0.66 | 0.00 | 63 | 1014.7 |
| 20260503050524 | 38 | 225 | 2.0 | 2.0 | 0.00 | 0.66 | 0.00 | 62 | 1014.7 |
| 20260503045518 | 38 | 238 | 2.0 | 4.0 | 0.00 | 0.66 | 0.00 | 62 | 1014.8 |
| 20260503044548 | 38 | 265 | 3.0 | 5.0 | 0.00 | 0.66 | 0.00 | 62 | 1014.7 |
| 20260503043523 | 39 | 258 | 3.0 | 4.0 | 0.00 | 0.66 | 0.00 | 62 | 1014.7 |
| 20260503042532 | 39 | 247 | 3.0 | 4.0 | 0.00 | 0.66 | 0.00 | 62 | 1014.7 |